GW5023 Weather Reports


Display with metric or nautical units.
time (UTC)temp
F
wind
direction
speed
MPH
gust
MPH
rain 1hr
in
rain 24hr
in
rain mn
in
humidity
%
barometer
mb
20260504231531 67 59 0.0 2.0 0.00 0.00 0.00 56 1011.1
20260504230017 67 28 1.0 2.0 0.00 0.00 0.00 54 1011.2
20260504224518 69 11 1.0 5.0 0.00 0.00 0.00 44 1011.3
20260504223019 69 49 2.0 3.0 0.00 0.00 0.00 45 1011.4
20260504221509 69 40 2.0 8.0 0.00 0.00 0.00 45 1011.5
20260504220016 69 265 1.0 7.0 0.00 0.00 0.00 47 1011.5
20260504214519 70 58 3.0 10.0 0.00 0.00 0.00 46 1011.4
20260504213023 69 232 1.0 14.0 0.00 0.00 0.00 45 1011.2
20260504211509 70 65 3.0 14.0 0.00 0.00 0.00 44 1011.6
20260504210016 71 231 2.0 11.0 0.00 0.00 0.00 44 1011.0
20260504204544 71 12 2.0 6.0 0.00 0.00 0.00 43 1010.9
20260504203027 71 335 3.0 15.0 0.00 0.00 0.00 41 1011.1
20260504201520 72 15 3.0 12.0 0.00 0.00 0.00 42 1011.0
20260504200016 72 294 3.0 8.0 0.00 0.00 0.00 44 1011.3
20260504194520 72 275 1.0 14.0 0.00 0.00 0.00 40 1011.2
20260504193024 73 36 4.0 9.0 0.00 0.00 0.00 38 1011.2
20260504191523 72 57 2.0 16.0 0.00 0.00 0.00 43 1011.1
20260504190025 72 321 3.0 9.0 0.00 0.00 0.00 42 1011.3
20260504184516 72 319 4.0 11.0 0.00 0.00 0.00 41 1011.5
20260504183022 71 81 7.0 13.0 0.00 0.00 0.00 41 1011.7
20260504181525 70 281 8.0 14.0 0.00 0.00 0.00 45 1012.2
20260504180025 71 44 7.0 12.0 0.00 0.00 0.00 44 1012.5
20260504174514 69 275 2.0 9.0 0.00 0.00 0.00 47 1012.5
20260504173020 67 13 2.0 6.0 0.00 0.00 0.00 46 1012.5
20260504171537 65 42 2.0 9.0 0.00 0.00 0.00 51 1013.0
20260504081529 43 41 1.0 2.0 0.00 0.00 0.00 90 1015.9
20260504044532 45 65 0.0 2.0 0.00 0.00 0.00 74 1016.6
20260504043027 46 57 0.0 2.0 0.00 0.00 0.00 72 1016.5
20260504041519 46 58 0.0 2.0 0.00 0.00 0.00 71 1016.4
20260504040024 46 58 0.0 1.0 0.00 0.00 0.00 70 1016.3
20260504034525 46 58 0.0 2.0 0.00 0.00 0.00 68 1016.4
20260504033028 47 57 0.0 2.0 0.00 0.00 0.00 68 1016.3
20260504031527 47 62 1.0 2.0 0.00 0.00 0.00 67 1016.3
20260504030035 47 72 0.0 2.0 0.00 0.00 0.00 68 1016.3
20260504024525 48 52 0.0 2.0 0.00 0.00 0.00 65 1016.2
20260504023025 49 52 0.0 2.0 0.00 0.00 0.00 63 1016.4
20260504021531 49 66 0.0 2.0 0.00 0.00 0.00 61 1016.4
20260504020019 50 58 0.0 2.0 0.00 0.00 0.00 59 1016.6
20260504014523 50 58 0.0 1.0 0.00 0.00 0.00 58 1016.5
20260504013023 50 93 0.0 2.0 0.00 0.00 0.00 58 1016.2
20260504011526 50 242 0.0 2.0 0.00 0.00 0.00 57 1016.2
20260504010026 51 242 0.0 2.0 0.00 0.00 0.00 56 1015.9
20260504004522 51 242 0.0 2.0 0.00 0.00 0.00 55 1015.8
20260504003026 52 221 0.0 2.0 0.00 0.00 0.00 50 1015.7
20260504001526 53 242 0.0 2.0 0.00 0.00 0.00 47 1015.6
20260504000026 54 266 1.0 3.0 0.00 0.00 0.00 42 1015.6
20260503234542 56 150 1.0 3.0 0.00 0.00 0.00 34 1015.6
20260503233021 56 304 1.0 5.0 0.00 0.00 0.00 33 1015.7